Location: 22
(39.7117°N, 89.5929°W)
Time: 19:56:44
(UTC-05:00)

Vanguard 3 - Pass Details

Date: 30 January 2023
Orbit: 508 x 3249 km, 33.4° (Epoch: 30 March)

Event Time Altitude Azimuth Distance (km) Brightness Sun altitude
Rises 20:02:17 0° 242° (WSW) 4,661 11.8 -32.2°
Reaches altitude 10° 20:04:54 10° 239° (WSW) 3,977 11.2 -32.7°
Maximum altitude 20:16:07 61° 162° (SSE) 2,684 9.4 -34.8°
Enters shadow 20:19:02 55° 126° (SE) 2,989 9.5 -35.4°
Drops below altitude 10° 20:34:06 10° 89° (E) 6,092 - -38.2°
Sets 20:39:13 0° 86° (E) 7,209 - -39.2°
